{"data":{"norad_id":53777,"intl_designator":"2022-111E","name":"STARLINK-4664","alt_names":[],"object_type":"PAYLOAD","status":"ACTIVE","operator":null,"country":"US","launch_date":"2022-09-11","launch_site_code":"AFETR","launch_vehicle":null,"mission":null,"orbit_class":"UNKNOWN","rcs_meters":null,"size_class":null,"mass_kg":null,"dimensions":null,"purposes":["comms"],"wikipedia_slug":null,"has_3d_model":false,"image_url":null,"decayed_at":null,"tle_current":{"epoch":"2026-09-20T22:00:03.000096Z","epoch_age_seconds":48068,"freshness":"FRESH","line1":"1 53777U 22111E   26263.91670139  .00580216  00000+0  18225-1 0  9991","line2":"2 53777  53.1789 114.3977 0001275  87.5526  28.5969 15.30400682  5805","mean_motion":15.30400682,"eccentricity":0.0001275,"inclination_deg":53.1789,"raan_deg":114.3977,"arg_perigee_deg":87.5526,"mean_anomaly_deg":28.5969,"bstar":0.018225,"rev_number":580,"period_min":94.093005638114,"perigee_km":473.74220862008,"apogee_km":475.48966061841,"semimajor_km":6852.7529346192,"source":"CELESTRAK","updated_at":"2026-09-21T09:00:32.991929Z"}}}